sat.trackr.live / text

‹ back to catalog

COSMOS 2594

NORAD 65270 · 2025-182D

PAYLOAD ACTIVE UNKNOWN

§ Identity

Operator
Country
CIS
Launch date
2025-08-21
Launch site
PLMSC
Launch vehicle
Mass (kg)
RCS (m²)

External: N2YO · Heavens-Above · Gunter

§ Orbital elements

Epoch: 2026-09-20T14:57:57.920256Z

Period
90.22 min
Inclination
96.5825°
Eccentricity
0.0006165
Mean motion
15.96059167 rev/d
Perigee alt
281.3 km
Apogee alt
289.5 km
Semi-major
6,663.5 km
B*
1.5626e-4
RAAN
192.6860°
Arg perigee
111.7201°
Mean anomaly
248.4734°
Rev number
6,293

§ Raw data

COSMOS 25941 65270U 25182D   26263.62358704  .00063234  33625-5  15626-3 0  99972 65270  96.5825 192.6860 0006165 111.7201 248.4734 15.96059167 62931

JSON: /api/v1/satellites/65270 · /tle

For live sub-satellite position, see the globe view (requires WebGL).

§ Visibility from observer

Set your observer location to see the next 7 days of passes ≥ 10°. The values pass through the URL so the page stays shareable.

No JS? Fill the form by hand. The geolocation button needs JavaScript.